Year,Month,Day,Hour,Minute,Value (Times are PST for insolation in W/m^2)
2014,06,15,00,00,0.00
2014,06,15,00,01,0.00
2014,06,15,00,02,0.00
2014,06,15,00,03,0.00
2014,06,15,00,04,0.00
2014,06,15,00,05,0.00
2014,06,15,00,06,0.00
2014,06,15,00,07,0.00
2014,06,15,00,08,0.00
2014,06,15,00,09,0.00
2014,06,15,00,10,0.00
2014,06,15,00,11,0.00
2014,06,15,00,12,0.00
2014,06,15,00,13,0.00
2014,06,15,00,14,0.00
2014,06,15,00,15,0.00
2014,06,15,00,16,0.00
2014,06,15,00,17,0.00
2014,06,15,00,18,0.00
2014,06,15,00,19,0.00
2014,06,15,00,20,0.00
2014,06,15,00,21,0.00
2014,06,15,00,22,0.00
2014,06,15,00,23,0.00
2014,06,15,00,24,0.00
2014,06,15,00,25,0.00
2014,06,15,00,26,0.00
2014,06,15,00,27,0.00
2014,06,15,00,28,0.00
2014,06,15,00,29,0.00
2014,06,15,00,30,0.00
2014,06,15,00,31,0.00
2014,06,15,00,32,0.00
2014,06,15,00,33,0.00
2014,06,15,00,34,0.00
2014,06,15,00,35,0.00
2014,06,15,00,36,0.00
2014,06,15,00,37,0.00
2014,06,15,00,38,0.00
2014,06,15,00,39,0.00
2014,06,15,00,40,0.00
2014,06,15,00,41,0.00
2014,06,15,00,42,0.00
2014,06,15,00,43,0.00
2014,06,15,00,44,0.00
2014,06,15,00,45,0.00
2014,06,15,00,46,0.00
2014,06,15,00,47,0.00
2014,06,15,00,48,0.00
2014,06,15,00,49,0.00
2014,06,15,00,50,0.00
2014,06,15,00,51,0.00
2014,06,15,00,52,0.00
2014,06,15,00,53,0.00
2014,06,15,00,54,0.00
2014,06,15,00,55,0.00
2014,06,15,00,56,0.00
2014,06,15,00,57,0.00
2014,06,15,00,58,0.00
2014,06,15,00,59,0.00
2014,06,15,01,00,0.00
2014,06,15,01,01,0.00
2014,06,15,01,02,0.00
2014,06,15,01,03,0.00
2014,06,15,01,04,0.00
2014,06,15,01,05,0.00
2014,06,15,01,06,0.00
2014,06,15,01,07,0.00
2014,06,15,01,08,0.00
2014,06,15,01,09,0.00
2014,06,15,01,10,0.00
2014,06,15,01,11,0.00
2014,06,15,01,12,0.00
2014,06,15,01,13,0.00
2014,06,15,01,14,0.00
2014,06,15,01,15,0.00
2014,06,15,01,16,0.00
2014,06,15,01,17,0.00
2014,06,15,01,18,0.00
2014,06,15,01,19,0.00
2014,06,15,01,20,0.00
2014,06,15,01,21,0.00
2014,06,15,01,22,0.00
2014,06,15,01,23,0.00
2014,06,15,01,24,0.00
2014,06,15,01,25,0.00
2014,06,15,01,26,0.00
2014,06,15,01,27,0.00
2014,06,15,01,28,0.00
2014,06,15,01,29,0.00
2014,06,15,01,30,0.00
2014,06,15,01,31,0.00
2014,06,15,01,32,0.00
2014,06,15,01,33,0.00
2014,06,15,01,34,0.00
2014,06,15,01,35,0.00
2014,06,15,01,36,0.00
2014,06,15,01,37,0.00
2014,06,15,01,38,0.00
2014,06,15,01,39,0.00
2014,06,15,01,40,0.00
2014,06,15,01,41,0.00
2014,06,15,01,42,0.00
2014,06,15,01,43,0.00
2014,06,15,01,44,0.00
2014,06,15,01,45,0.00
2014,06,15,01,46,0.00
2014,06,15,01,47,0.00
2014,06,15,01,48,0.00
2014,06,15,01,49,0.00
2014,06,15,01,50,0.00
2014,06,15,01,51,0.00
2014,06,15,01,52,0.00
2014,06,15,01,53,0.00
2014,06,15,01,54,0.00
2014,06,15,01,55,0.00
2014,06,15,01,56,0.00
2014,06,15,01,57,0.00
2014,06,15,01,58,0.00
2014,06,15,01,59,0.00
2014,06,15,02,00,0.00
2014,06,15,02,01,0.00
2014,06,15,02,02,0.00
2014,06,15,02,03,0.00
2014,06,15,02,04,0.00
2014,06,15,02,05,0.00
2014,06,15,02,06,0.00
2014,06,15,02,07,0.00
2014,06,15,02,08,0.00
2014,06,15,02,09,0.00
2014,06,15,02,10,0.00
2014,06,15,02,11,0.00
2014,06,15,02,12,0.00
2014,06,15,02,13,0.00
2014,06,15,02,14,0.00
2014,06,15,02,15,0.00
2014,06,15,02,16,0.00
2014,06,15,02,17,0.00
2014,06,15,02,18,0.00
2014,06,15,02,19,0.00
2014,06,15,02,20,0.00
2014,06,15,02,21,0.00
2014,06,15,02,22,0.00
2014,06,15,02,23,0.00
2014,06,15,02,24,0.00
2014,06,15,02,25,0.00
2014,06,15,02,26,0.00
2014,06,15,02,27,0.00
2014,06,15,02,28,0.00
2014,06,15,02,29,0.00
2014,06,15,02,30,0.00
2014,06,15,02,31,0.00
2014,06,15,02,32,0.00
2014,06,15,02,33,0.00
2014,06,15,02,34,0.00
2014,06,15,02,35,0.00
2014,06,15,02,36,0.00
2014,06,15,02,37,0.00
2014,06,15,02,38,0.00
2014,06,15,02,39,0.00
2014,06,15,02,40,0.00
2014,06,15,02,41,0.00
2014,06,15,02,42,0.00
2014,06,15,02,43,0.00
2014,06,15,02,44,0.00
2014,06,15,02,45,0.00
2014,06,15,02,46,0.00
2014,06,15,02,47,0.00
2014,06,15,02,48,0.00
2014,06,15,02,49,0.00
2014,06,15,02,50,0.00
2014,06,15,02,51,0.00
2014,06,15,02,52,0.00
2014,06,15,02,53,0.00
2014,06,15,02,54,0.00
2014,06,15,02,55,0.00
2014,06,15,02,56,0.00
2014,06,15,02,57,0.00
2014,06,15,02,58,0.00
2014,06,15,02,59,0.00
2014,06,15,03,00,0.00
2014,06,15,03,01,0.00
2014,06,15,03,02,0.00
2014,06,15,03,03,0.00
2014,06,15,03,04,0.00
2014,06,15,03,05,0.00
2014,06,15,03,06,0.00
2014,06,15,03,07,0.00
2014,06,15,03,08,0.00
2014,06,15,03,09,0.00
2014,06,15,03,10,0.00
2014,06,15,03,11,0.00
2014,06,15,03,12,0.00
2014,06,15,03,13,0.00
2014,06,15,03,14,0.00
2014,06,15,03,15,0.00
2014,06,15,03,16,0.00
2014,06,15,03,17,0.00
2014,06,15,03,18,0.00
2014,06,15,03,19,0.00
2014,06,15,03,20,0.00
2014,06,15,03,21,0.00
2014,06,15,03,22,0.00
2014,06,15,03,23,0.00
2014,06,15,03,24,0.00
2014,06,15,03,25,0.00
2014,06,15,03,26,0.00
2014,06,15,03,27,0.00
2014,06,15,03,28,0.00
2014,06,15,03,29,0.00
2014,06,15,03,30,0.00
2014,06,15,03,31,0.00
2014,06,15,03,32,0.00
2014,06,15,03,33,0.00
2014,06,15,03,34,0.00
2014,06,15,03,35,0.00
2014,06,15,03,36,0.00
2014,06,15,03,37,0.00
2014,06,15,03,38,0.00
2014,06,15,03,39,0.00
2014,06,15,03,40,0.00
2014,06,15,03,41,0.00
2014,06,15,03,42,0.00
2014,06,15,03,43,0.00
2014,06,15,03,44,0.00
2014,06,15,03,45,0.00
2014,06,15,03,46,0.00
2014,06,15,03,47,0.00
2014,06,15,03,48,0.00
2014,06,15,03,49,0.00
2014,06,15,03,50,0.00
2014,06,15,03,51,0.00
2014,06,15,03,52,0.00
2014,06,15,03,53,0.00
2014,06,15,03,54,0.00
2014,06,15,03,55,0.00
2014,06,15,03,56,0.00
2014,06,15,03,57,0.00
2014,06,15,03,58,0.00
2014,06,15,03,59,0.00
2014,06,15,04,00,0.00
2014,06,15,04,01,0.00
2014,06,15,04,02,0.00
2014,06,15,04,03,0.00
2014,06,15,04,04,0.00
2014,06,15,04,05,0.00
2014,06,15,04,06,0.00
2014,06,15,04,07,0.00
2014,06,15,04,08,0.00
2014,06,15,04,09,0.00
2014,06,15,04,10,0.00
2014,06,15,04,11,0.00
2014,06,15,04,12,0.00
2014,06,15,04,13,0.00
2014,06,15,04,14,0.00
2014,06,15,04,15,0.00
2014,06,15,04,16,0.00
2014,06,15,04,17,0.00
2014,06,15,04,18,0.00
2014,06,15,04,19,0.00
2014,06,15,04,20,0.00
2014,06,15,04,21,0.00
2014,06,15,04,22,0.00
2014,06,15,04,23,0.00
2014,06,15,04,24,0.00
2014,06,15,04,25,0.00
2014,06,15,04,26,0.00
2014,06,15,04,27,0.00
2014,06,15,04,28,0.00
2014,06,15,04,29,0.00
2014,06,15,04,30,0.00
2014,06,15,04,31,0.00
2014,06,15,04,32,0.00
2014,06,15,04,33,0.00
2014,06,15,04,34,0.00
2014,06,15,04,35,0.00
2014,06,15,04,36,0.00
2014,06,15,04,37,0.00
2014,06,15,04,38,0.00
2014,06,15,04,39,0.00
2014,06,15,04,40,0.00
2014,06,15,04,41,0.00
2014,06,15,04,42,0.00
2014,06,15,04,43,0.00
2014,06,15,04,44,0.00
2014,06,15,04,45,0.00
2014,06,15,04,46,0.00
2014,06,15,04,47,0.00
2014,06,15,04,48,0.00
2014,06,15,04,49,0.00
2014,06,15,04,50,0.00
2014,06,15,04,51,0.00
2014,06,15,04,52,0.00
2014,06,15,04,53,0.00
2014,06,15,04,54,0.00
2014,06,15,04,55,0.00
2014,06,15,04,56,0.00
2014,06,15,04,57,0.00
2014,06,15,04,58,0.00
2014,06,15,04,59,0.00
2014,06,15,05,00,0.00
2014,06,15,05,01,0.00
2014,06,15,05,02,0.00
2014,06,15,05,03,0.00
2014,06,15,05,04,0.00
2014,06,15,05,05,0.00
2014,06,15,05,06,0.00
2014,06,15,05,07,0.00
2014,06,15,05,08,0.00
2014,06,15,05,09,0.00
2014,06,15,05,10,0.00
2014,06,15,05,11,0.00
2014,06,15,05,12,0.00
2014,06,15,05,13,0.00
2014,06,15,05,14,0.00
2014,06,15,05,15,0.00
2014,06,15,05,16,0.00
2014,06,15,05,17,0.00
2014,06,15,05,18,0.00
2014,06,15,05,19,0.00
2014,06,15,05,20,0.00
2014,06,15,05,21,0.00
2014,06,15,05,22,0.00
2014,06,15,05,23,0.00
2014,06,15,05,24,0.00
2014,06,15,05,25,0.00
2014,06,15,05,26,0.00
2014,06,15,05,27,0.00
2014,06,15,05,28,0.00
2014,06,15,05,29,0.00
2014,06,15,05,30,0.00
2014,06,15,05,31,1.80
2014,06,15,05,32,5.00
2014,06,15,05,33,5.00
2014,06,15,05,34,5.00
2014,06,15,05,35,5.30
2014,06,15,05,36,7.00
2014,06,15,05,37,7.00
2014,06,15,05,38,8.20
2014,06,15,05,39,9.00
2014,06,15,05,40,10.70
2014,06,15,05,41,12.00
2014,06,15,05,42,12.00
2014,06,15,05,43,11.60
2014,06,15,05,44,9.90
2014,06,15,05,45,9.00
2014,06,15,05,46,7.30
2014,06,15,05,47,7.00
2014,06,15,05,48,7.60
2014,06,15,05,49,9.00
2014,06,15,05,50,9.00
2014,06,15,05,51,9.00
2014,06,15,05,52,9.00
2014,06,15,05,53,8.70
2014,06,15,05,54,7.00
2014,06,15,05,55,7.00
2014,06,15,05,56,8.30
2014,06,15,05,57,10.50
2014,06,15,05,58,11.90
2014,06,15,05,59,12.30
2014,06,15,06,00,14.00
2014,06,15,06,01,15.00
2014,06,15,06,02,17.30
2014,06,15,06,03,18.80
2014,06,15,06,04,19.20
2014,06,15,06,05,21.80
2014,06,15,06,06,25.00
2014,06,15,06,07,25.50
2014,06,15,06,08,26.00
2014,06,15,06,09,27.60
2014,06,15,06,10,30.10
2014,06,15,06,11,32.80
2014,06,15,06,12,32.40
2014,06,15,06,13,34.10
2014,06,15,06,14,37.70
2014,06,15,06,15,41.40
2014,06,15,06,16,46.30
2014,06,15,06,17,51.50
2014,06,15,06,18,53.40
2014,06,15,06,19,54.00
2014,06,15,06,20,55.40
2014,06,15,06,21,57.70
2014,06,15,06,22,61.90
2014,06,15,06,23,63.00
2014,06,15,06,24,63.00
2014,06,15,06,25,62.40
2014,06,15,06,26,62.00
2014,06,15,06,27,62.90
2014,06,15,06,28,106.60
2014,06,15,06,29,67.10
2014,06,15,06,30,64.80
2014,06,15,06,31,68.70
2014,06,15,06,32,79.30
2014,06,15,06,33,90.50
2014,06,15,06,34,98.30
2014,06,15,06,35,109.80
2014,06,15,06,36,139.90
2014,06,15,06,37,157.00
2014,06,15,06,38,147.50
2014,06,15,06,39,128.80
2014,06,15,06,40,125.00
2014,06,15,06,41,125.70
2014,06,15,06,42,127.50
2014,06,15,06,43,126.10
2014,06,15,06,44,115.50
2014,06,15,06,45,98.30
2014,06,15,06,46,84.50
2014,06,15,06,47,79.70
2014,06,15,06,48,83.50
2014,06,15,06,49,88.50
2014,06,15,06,50,92.20
2014,06,15,06,51,97.70
2014,06,15,06,52,101.20
2014,06,15,06,53,108.30
2014,06,15,06,54,117.50
2014,06,15,06,55,123.70
2014,06,15,06,56,127.30
2014,06,15,06,57,128.00
2014,06,15,06,58,128.00
2014,06,15,06,59,128.00
2014,06,15,07,00,129.10
2014,06,15,07,01,131.50
2014,06,15,07,02,128.60
2014,06,15,07,03,127.00
2014,06,15,07,04,127.20
2014,06,15,07,05,126.80
2014,06,15,07,06,122.20
2014,06,15,07,07,117.00
2014,06,15,07,08,113.00
2014,06,15,07,09,106.50
2014,06,15,07,10,104.00
2014,06,15,07,11,104.50
2014,06,15,07,12,107.40
2014,06,15,07,13,110.50
2014,06,15,07,14,112.80
2014,06,15,07,15,115.20
2014,06,15,07,16,120.30
2014,06,15,07,17,122.80
2014,06,15,07,18,126.90
2014,06,15,07,19,131.00
2014,06,15,07,20,132.00
2014,06,15,07,21,130.60
2014,06,15,07,22,124.40
2014,06,15,07,23,122.10
2014,06,15,07,24,122.20
2014,06,15,07,25,123.00
2014,06,15,07,26,124.70
2014,06,15,07,27,122.60
2014,06,15,07,28,120.70
2014,06,15,07,29,118.00
2014,06,15,07,30,114.10
2014,06,15,07,31,113.00
2014,06,15,07,32,107.20
2014,06,15,07,33,103.50
2014,06,15,07,34,100.50
2014,06,15,07,35,96.50
2014,06,15,07,36,91.50
2014,06,15,07,37,86.60
2014,06,15,07,38,86.00
2014,06,15,07,39,86.00
2014,06,15,07,40,86.80
2014,06,15,07,41,90.80
2014,06,15,07,42,96.50
2014,06,15,07,43,105.70
2014,06,15,07,44,117.20
2014,06,15,07,45,129.40
2014,06,15,07,46,138.10
2014,06,15,07,47,146.10
2014,06,15,07,48,153.90
2014,06,15,07,49,162.30
2014,06,15,07,50,171.00
2014,06,15,07,51,172.60
2014,06,15,07,52,176.00
2014,06,15,07,53,177.80
2014,06,15,07,54,181.80
2014,06,15,07,55,182.80
2014,06,15,07,56,179.30
2014,06,15,07,57,179.50
2014,06,15,07,58,174.20
2014,06,15,07,59,167.60
2014,06,15,08,00,157.50
2014,06,15,08,01,143.10
2014,06,15,08,02,137.30
2014,06,15,08,03,139.70
2014,06,15,08,04,142.40
2014,06,15,08,05,145.20
2014,06,15,08,06,146.00
2014,06,15,08,07,151.10
2014,06,15,08,08,165.80
2014,06,15,08,09,174.00
2014,06,15,08,10,196.10
2014,06,15,08,11,221.90
2014,06,15,08,12,245.50
2014,06,15,08,13,228.40
2014,06,15,08,14,231.50
2014,06,15,08,15,241.70
2014,06,15,08,16,243.00
2014,06,15,08,17,248.50
2014,06,15,08,18,251.00
2014,06,15,08,19,239.80
2014,06,15,08,20,241.50
2014,06,15,08,21,243.40
2014,06,15,08,22,244.00
2014,06,15,08,23,241.90
2014,06,15,08,24,239.30
2014,06,15,08,25,246.50
2014,06,15,08,26,252.80
2014,06,15,08,27,251.10
2014,06,15,08,28,290.30
2014,06,15,08,29,350.00
2014,06,15,08,30,359.00
2014,06,15,08,31,347.00
2014,06,15,08,32,283.60
2014,06,15,08,33,285.00
2014,06,15,08,34,285.00
2014,06,15,08,35,293.40
2014,06,15,08,36,320.40
2014,06,15,08,37,326.00
2014,06,15,08,38,366.00
2014,06,15,08,39,366.00
2014,06,15,08,40,366.00
2014,06,15,08,41,303.80
2014,06,15,08,42,279.90
2014,06,15,08,43,292.00
2014,06,15,08,44,320.10
2014,06,15,08,45,342.00
2014,06,15,08,46,365.80
2014,06,15,08,47,382.00
2014,06,15,08,48,374.90
2014,06,15,08,49,399.00
2014,06,15,08,50,472.90
2014,06,15,08,51,610.00
2014,06,15,08,52,431.90
2014,06,15,08,53,336.00
2014,06,15,08,54,343.60
2014,06,15,08,55,407.50
2014,06,15,08,56,449.60
2014,06,15,08,57,473.30
2014,06,15,08,58,452.00
2014,06,15,08,59,452.00
2014,06,15,09,00,445.60
2014,06,15,09,01,409.80
2014,06,15,09,02,433.30
2014,06,15,09,03,371.00
2014,06,15,09,04,366.00
2014,06,15,09,05,366.00
2014,06,15,09,06,591.70
2014,06,15,09,07,613.10
2014,06,15,09,08,670.20
2014,06,15,09,09,700.80
2014,06,15,09,10,712.00
2014,06,15,09,11,463.80
2014,06,15,09,12,464.70
2014,06,15,09,13,703.00
2014,06,15,09,14,703.00
2014,06,15,09,15,541.60
2014,06,15,09,16,397.90
2014,06,15,09,17,325.50
2014,06,15,09,18,326.40
2014,06,15,09,19,314.40
2014,06,15,09,20,303.80
2014,06,15,09,21,299.20
2014,06,15,09,22,363.60
2014,06,15,09,23,372.50
2014,06,15,09,24,433.80
2014,06,15,09,25,504.30
2014,06,15,09,26,494.00
2014,06,15,09,27,431.00
2014,06,15,09,28,399.80
2014,06,15,09,29,348.70
2014,06,15,09,30,402.00
2014,06,15,09,31,413.40
2014,06,15,09,32,443.30
2014,06,15,09,33,501.00
2014,06,15,09,34,529.40
2014,06,15,09,35,612.60
2014,06,15,09,36,570.50
2014,06,15,09,37,431.00
2014,06,15,09,38,487.00
2014,06,15,09,39,543.00
2014,06,15,09,40,403.80
2014,06,15,09,41,363.50
2014,06,15,09,42,353.80
2014,06,15,09,43,331.30
2014,06,15,09,44,314.30
2014,06,15,09,45,300.30
2014,06,15,09,46,286.90
2014,06,15,09,47,273.80
2014,06,15,09,48,267.80
2014,06,15,09,49,265.00
2014,06,15,09,50,267.20
2014,06,15,09,51,272.50
2014,06,15,09,52,278.20
2014,06,15,09,53,285.00
2014,06,15,09,54,285.00
2014,06,15,09,55,283.30
2014,06,15,09,56,281.00
2014,06,15,09,57,287.60
2014,06,15,09,58,292.10
2014,06,15,09,59,303.00
2014,06,15,10,00,317.00
2014,06,15,10,01,339.50
2014,06,15,10,02,379.10
2014,06,15,10,03,373.30
2014,06,15,10,04,356.20
2014,06,15,10,05,354.40
2014,06,15,10,06,353.80
2014,06,15,10,07,360.30
2014,06,15,10,08,374.20
2014,06,15,10,09,396.00
2014,06,15,10,10,388.40
2014,06,15,10,11,383.00
2014,06,15,10,12,383.00
2014,06,15,10,13,378.30
2014,06,15,10,14,364.20
2014,06,15,10,15,359.00
2014,06,15,10,16,375.80
2014,06,15,10,17,401.80
2014,06,15,10,18,406.40
2014,06,15,10,19,397.30
2014,06,15,10,20,388.10
2014,06,15,10,21,373.80
2014,06,15,10,22,347.90
2014,06,15,10,23,323.70
2014,06,15,10,24,303.00
2014,06,15,10,25,286.50
2014,06,15,10,26,274.00
2014,06,15,10,27,265.90
2014,06,15,10,28,261.70
2014,06,15,10,29,260.00
2014,06,15,10,30,260.80
2014,06,15,10,31,263.10
2014,06,15,10,32,267.70
2014,06,15,10,33,276.60
2014,06,15,10,34,289.20
2014,06,15,10,35,305.50
2014,06,15,10,36,325.70
2014,06,15,10,37,355.80
2014,06,15,10,38,388.80
2014,06,15,10,39,405.90
2014,06,15,10,40,421.80
2014,06,15,10,41,412.00
2014,06,15,10,42,410.00
2014,06,15,10,43,408.80
2014,06,15,10,44,420.00
2014,06,15,10,45,428.60
2014,06,15,10,46,424.00
2014,06,15,10,47,390.40
2014,06,15,10,48,366.00
2014,06,15,10,49,340.30
2014,06,15,10,50,322.90
2014,06,15,10,51,309.80
2014,06,15,10,52,304.90
2014,06,15,10,53,301.40
2014,06,15,10,54,304.00
2014,06,15,10,55,309.20
2014,06,15,10,56,318.20
2014,06,15,10,57,331.20
2014,06,15,10,58,352.80
2014,06,15,10,59,389.80
2014,06,15,11,00,427.10
2014,06,15,11,01,508.00
2014,06,15,11,02,484.90
2014,06,15,11,03,410.20
2014,06,15,11,04,398.50
2014,06,15,11,05,403.00
2014,06,15,11,06,432.70
2014,06,15,11,07,465.40
2014,06,15,11,08,445.40
2014,06,15,11,09,447.40
2014,06,15,11,10,455.70
2014,06,15,11,11,433.10
2014,06,15,11,12,404.80
2014,06,15,11,13,405.90
2014,06,15,11,14,457.30
2014,06,15,11,15,437.00
2014,06,15,11,16,385.70
2014,06,15,11,17,364.30
2014,06,15,11,18,349.30
2014,06,15,11,19,342.10
2014,06,15,11,20,339.20
2014,06,15,11,21,339.00
2014,06,15,11,22,339.00
2014,06,15,11,23,338.50
2014,06,15,11,24,338.00
2014,06,15,11,25,335.00
2014,06,15,11,26,330.50
2014,06,15,11,27,332.80
2014,06,15,11,28,338.60
2014,06,15,11,29,346.30
2014,06,15,11,30,357.20
2014,06,15,11,31,374.00
2014,06,15,11,32,410.20
2014,06,15,11,33,465.20
2014,06,15,11,34,475.00
2014,06,15,11,35,495.00
2014,06,15,11,36,542.90
2014,06,15,11,37,559.00
2014,06,15,11,38,563.70
2014,06,15,11,39,602.40
2014,06,15,11,40,598.20
2014,06,15,11,41,602.50
2014,06,15,11,42,534.80
2014,06,15,11,43,452.50
2014,06,15,11,44,422.00
2014,06,15,11,45,429.00
2014,06,15,11,46,440.20
2014,06,15,11,47,436.60
2014,06,15,11,48,432.40
2014,06,15,11,49,436.00
2014,06,15,11,50,453.00
2014,06,15,11,51,455.50
2014,06,15,11,52,470.20
2014,06,15,11,53,460.80
2014,06,15,11,54,452.10
2014,06,15,11,55,452.60
2014,06,15,11,56,475.10
2014,06,15,11,57,485.60
2014,06,15,11,58,453.10
2014,06,15,11,59,438.40
2014,06,15,12,00,426.50
2014,06,15,12,01,417.40
2014,06,15,12,02,409.90
2014,06,15,12,03,402.50
2014,06,15,12,04,399.00
2014,06,15,12,05,402.00
2014,06,15,12,06,414.50
2014,06,15,12,07,433.40
2014,06,15,12,08,462.00
2014,06,15,12,09,508.50
2014,06,15,12,10,545.00
2014,06,15,12,11,562.00
2014,06,15,12,12,535.60
2014,06,15,12,13,518.40
2014,06,15,12,14,496.60
2014,06,15,12,15,475.80
2014,06,15,12,16,462.00
2014,06,15,12,17,457.00
2014,06,15,12,18,454.60
2014,06,15,12,19,449.80
2014,06,15,12,20,445.20
2014,06,15,12,21,440.40
2014,06,15,12,22,430.00
2014,06,15,12,23,417.20
2014,06,15,12,24,405.40
2014,06,15,12,25,395.40
2014,06,15,12,26,389.20
2014,06,15,12,27,386.10
2014,06,15,12,28,385.00
2014,06,15,12,29,385.00
2014,06,15,12,30,385.00
2014,06,15,12,31,387.30
2014,06,15,12,32,391.20
2014,06,15,12,33,396.10
2014,06,15,12,34,402.90
2014,06,15,12,35,411.20
2014,06,15,12,36,416.40
2014,06,15,12,37,427.40
2014,06,15,12,38,442.60
2014,06,15,12,39,451.00
2014,06,15,12,40,471.50
2014,06,15,12,41,509.80
2014,06,15,12,42,587.90
2014,06,15,12,43,515.20
2014,06,15,12,44,559.20
2014,06,15,12,45,517.50
2014,06,15,12,46,538.40
2014,06,15,12,47,548.00
2014,06,15,12,48,548.00
2014,06,15,12,49,542.40
2014,06,15,12,50,515.80
2014,06,15,12,51,508.90
2014,06,15,12,52,504.60
2014,06,15,12,53,494.20
2014,06,15,12,54,505.00
2014,06,15,12,55,582.00
2014,06,15,12,56,545.60
2014,06,15,12,57,523.00
2014,06,15,12,58,628.60
2014,06,15,12,59,664.00
2014,06,15,13,00,504.70
2014,06,15,13,01,552.40
2014,06,15,13,02,545.30
2014,06,15,13,03,520.00
2014,06,15,13,04,520.00
2014,06,15,13,05,768.00
2014,06,15,13,06,870.00
2014,06,15,13,07,870.00
2014,06,15,13,08,870.00
2014,06,15,13,09,870.00
2014,06,15,13,10,678.20
2014,06,15,13,11,527.80
2014,06,15,13,12,491.40
2014,06,15,13,13,477.30
2014,06,15,13,14,471.00
2014,06,15,13,15,473.20
2014,06,15,13,16,475.70
2014,06,15,13,17,464.10
2014,06,15,13,18,458.00
2014,06,15,13,19,452.00
2014,06,15,13,20,461.50
2014,06,15,13,21,496.40
2014,06,15,13,22,506.10
2014,06,15,13,23,488.00
2014,06,15,13,24,497.30
2014,06,15,13,25,541.50
2014,06,15,13,26,516.00
2014,06,15,13,27,491.60
2014,06,15,13,28,466.00
2014,06,15,13,29,461.70
2014,06,15,13,30,480.80
2014,06,15,13,31,513.80
2014,06,15,13,32,529.00
2014,06,15,13,33,595.90
2014,06,15,13,34,628.00
2014,06,15,13,35,699.10
2014,06,15,13,36,675.00
2014,06,15,13,37,555.70
2014,06,15,13,38,609.10
2014,06,15,13,39,605.30
2014,06,15,13,40,542.00
2014,06,15,13,41,517.10
2014,06,15,13,42,512.90
2014,06,15,13,43,506.40
2014,06,15,13,44,478.90
2014,06,15,13,45,476.60
2014,06,15,13,46,476.00
2014,06,15,13,47,471.50
2014,06,15,13,48,501.00
2014,06,15,13,49,534.00
2014,06,15,13,50,730.30
2014,06,15,13,51,907.00
2014,06,15,13,52,558.50
2014,06,15,13,53,482.50
2014,06,15,13,54,479.50
2014,06,15,13,55,480.80
2014,06,15,13,56,497.60
2014,06,15,13,57,508.00
2014,06,15,13,58,508.00
2014,06,15,13,59,508.00
2014,06,15,14,00,517.00
2014,06,15,14,01,564.50
2014,06,15,14,02,585.60
2014,06,15,14,03,580.00
2014,06,15,14,04,583.30
2014,06,15,14,05,647.00
2014,06,15,14,06,865.70
2014,06,15,14,07,1376.00
2014,06,15,14,08,1376.00
2014,06,15,14,09,1376.00
2014,06,15,14,10,1335.10
2014,06,15,14,11,601.40
2014,06,15,14,12,595.10
2014,06,15,14,13,553.40
2014,06,15,14,14,531.30
2014,06,15,14,15,527.90
2014,06,15,14,16,560.50
2014,06,15,14,17,570.70
2014,06,15,14,18,596.00
2014,06,15,14,19,596.00
2014,06,15,14,20,642.80
2014,06,15,14,21,716.00
2014,06,15,14,22,724.60
2014,06,15,14,23,664.00
2014,06,15,14,24,664.00
2014,06,15,14,25,664.00
2014,06,15,14,26,743.10
2014,06,15,14,27,777.00
2014,06,15,14,28,777.00
2014,06,15,14,29,777.00
2014,06,15,14,30,914.60
2014,06,15,14,31,1105.10
2014,06,15,14,32,1077.60
2014,06,15,14,33,1039.60
2014,06,15,14,34,1052.30
2014,06,15,14,35,1048.70
2014,06,15,14,36,1057.10
2014,06,15,14,37,1057.80
2014,06,15,14,38,1064.10
2014,06,15,14,39,1056.80
2014,06,15,14,40,1095.00
2014,06,15,14,41,1095.00
2014,06,15,14,42,986.80
2014,06,15,14,43,838.00
2014,06,15,14,44,838.00
2014,06,15,14,45,580.60
2014,06,15,14,46,552.00
2014,06,15,14,47,535.20
2014,06,15,14,48,550.90
2014,06,15,14,49,548.40
2014,06,15,14,50,468.60
2014,06,15,14,51,456.10
2014,06,15,14,52,460.80
2014,06,15,14,53,450.00
2014,06,15,14,54,520.70
2014,06,15,14,55,527.00
2014,06,15,14,56,527.00
2014,06,15,14,57,527.00
2014,06,15,14,58,548.60
2014,06,15,14,59,635.00
2014,06,15,15,00,737.50
2014,06,15,15,01,840.00
2014,06,15,15,02,912.40
2014,06,15,15,03,911.00
2014,06,15,15,04,890.30
2014,06,15,15,05,873.60
2014,06,15,15,06,866.40
2014,06,15,15,07,862.40
2014,06,15,15,08,855.40
2014,06,15,15,09,848.70
2014,06,15,15,10,846.00
2014,06,15,15,11,845.20
2014,06,15,15,12,840.70
2014,06,15,15,13,835.80
2014,06,15,15,14,827.30
2014,06,15,15,15,821.30
2014,06,15,15,16,824.80
2014,06,15,15,17,830.00
2014,06,15,15,18,781.60
2014,06,15,15,19,808.50
2014,06,15,15,20,833.40
2014,06,15,15,21,818.90
2014,06,15,15,22,804.90
2014,06,15,15,23,797.10
2014,06,15,15,24,791.90
2014,06,15,15,25,791.00
2014,06,15,15,26,794.70
2014,06,15,15,27,801.00
2014,06,15,15,28,803.20
2014,06,15,15,29,800.00
2014,06,15,15,30,798.80
2014,06,15,15,31,796.50
2014,06,15,15,32,791.80
2014,06,15,15,33,798.20
2014,06,15,15,34,812.20
2014,06,15,15,35,821.00
2014,06,15,15,36,445.80
2014,06,15,15,37,227.00
2014,06,15,15,38,227.00
2014,06,15,15,39,227.00
2014,06,15,15,40,227.00
2014,06,15,15,41,356.50
2014,06,15,15,42,473.00
2014,06,15,15,43,473.00
2014,06,15,15,44,473.00
2014,06,15,15,45,419.80
2014,06,15,15,46,260.00
2014,06,15,15,47,260.00
2014,06,15,15,48,260.00
2014,06,15,15,49,260.00
2014,06,15,15,50,254.30
2014,06,15,15,51,215.20
2014,06,15,15,52,281.30
2014,06,15,15,53,352.10
2014,06,15,15,54,308.80
2014,06,15,15,55,282.00
2014,06,15,15,56,348.00
2014,06,15,15,57,348.00
2014,06,15,15,58,287.20
2014,06,15,15,59,210.70
2014,06,15,16,00,218.80
2014,06,15,16,01,237.30
2014,06,15,16,02,246.60
2014,06,15,16,03,250.90
2014,06,15,16,04,255.20
2014,06,15,16,05,263.40
2014,06,15,16,06,265.50
2014,06,15,16,07,258.70
2014,06,15,16,08,254.60
2014,06,15,16,09,252.30
2014,06,15,16,10,247.20
2014,06,15,16,11,238.80
2014,06,15,16,12,236.00
2014,06,15,16,13,242.80
2014,06,15,16,14,254.40
2014,06,15,16,15,258.40
2014,06,15,16,16,250.50
2014,06,15,16,17,244.70
2014,06,15,16,18,252.70
2014,06,15,16,19,264.10
2014,06,15,16,20,267.50
2014,06,15,16,21,269.00
2014,06,15,16,22,274.00
2014,06,15,16,23,289.60
2014,06,15,16,24,305.40
2014,06,15,16,25,300.90
2014,06,15,16,26,285.40
2014,06,15,16,27,273.60
2014,06,15,16,28,265.40
2014,06,15,16,29,305.70
2014,06,15,16,30,325.00
2014,06,15,16,31,321.90
2014,06,15,16,32,304.50
2014,06,15,16,33,326.00
2014,06,15,16,34,311.00
2014,06,15,16,35,311.00
2014,06,15,16,36,742.80
2014,06,15,16,37,809.00
2014,06,15,16,38,638.60
2014,06,15,16,39,237.20
2014,06,15,16,40,244.60
2014,06,15,16,41,253.00
2014,06,15,16,42,277.50
2014,06,15,16,43,742.00
2014,06,15,16,44,742.00
2014,06,15,16,45,742.00
2014,06,15,16,46,466.60
2014,06,15,16,47,271.00
2014,06,15,16,48,233.40
2014,06,15,16,49,225.80
2014,06,15,16,50,230.00
2014,06,15,16,51,230.00
2014,06,15,16,52,230.00
2014,06,15,16,53,230.00
2014,06,15,16,54,162.50
2014,06,15,16,55,262.80
2014,06,15,16,56,694.00
2014,06,15,16,57,694.00
2014,06,15,16,58,694.00
2014,06,15,16,59,694.00
2014,06,15,17,00,694.00
2014,06,15,17,01,570.00
2014,06,15,17,02,97.70
2014,06,15,17,03,82.50
2014,06,15,17,04,83.10
2014,06,15,17,05,88.80
2014,06,15,17,06,94.10
2014,06,15,17,07,104.20